Location: Elstree
(51.6403°N, 0.2969°W)
Time: 01:55:34
(UTC+00:00)

Ariane Rocket - Pass Details

Date: 03 March 2021
Orbit: 759 x 771 km, 98.7° (Epoch: 11 April)

Event Time Altitude Azimuth Distance (km) Brightness Sun altitude
Exits shadow 18:42:03 - 119° (ESE) 2,427 5.1 -9.6°
Reaches altitude 10° 18:42:23 10° 117° (ESE) 2,315 4.9 -9.7°
Maximum altitude 18:46:41 28° 60° (ENE) 1,416 3.9 -10.3°
Drops below altitude 10° 18:50:59 10° 2° (N) 2,324 5.5 -11.0°
Sets 18:53:34 0° 352° (N) 3,254 6.4 -11.4°
